TimePDT,TemperatureF,Dew PointF,Humidity,Sea Level PressureIn,VisibilityMPH,Wind Direction,Wind SpeedMPH,Gust SpeedMPH,PrecipitationIn,Events,Conditions,WindDirDegrees,DateUTC
12:53 AM,41.0,36.0,82,30.17,10.0,West,3.5,-,N/A,,Clear,270,2013-10-22 07:53:00
1:53 AM,39.9,36.0,86,30.18,10.0,WNW,6.9,-,N/A,,Clear,300,2013-10-22 08:53:00
2:53 AM,37.0,34.0,89,30.18,10.0,West,5.8,-,N/A,,Clear,270,2013-10-22 09:53:00
3:53 AM,37.0,33.1,86,30.18,10.0,WNW,5.8,-,N/A,,Clear,290,2013-10-22 10:53:00
4:53 AM,36.0,33.1,89,30.19,10.0,West,8.1,-,N/A,,Clear,270,2013-10-22 11:53:00
5:53 AM,36.0,32.0,86,30.19,10.0,West,8.1,-,N/A,,Clear,270,2013-10-22 12:53:00
6:53 AM,35.1,33.1,92,30.21,10.0,Calm,Calm,-,N/A,,Clear,0,2013-10-22 13:53:00
7:53 AM,35.1,32.0,89,30.22,10.0,WNW,4.6,-,N/A,,Clear,290,2013-10-22 14:53:00
8:53 AM,44.1,37.9,79,30.22,10.0,NW,3.5,-,N/A,,Clear,320,2013-10-22 15:53:00
9:53 AM,53.1,41.0,64,30.21,10.0,West,4.6,-,N/A,,Clear,260,2013-10-22 16:53:00
10:53 AM,59.0,41.0,51,30.19,10.0,WNW,4.6,-,N/A,,Clear,300,2013-10-22 17:53:00
11:53 AM,64.0,42.1,45,30.17,10.0,Calm,Calm,-,N/A,,Clear,0,2013-10-22 18:53:00
12:53 PM,68.0,42.1,39,30.15,10.0,Calm,Calm,-,N/A,,Clear,0,2013-10-22 19:53:00
1:53 PM,70.0,43.0,38,30.13,10.0,East,3.5,-,N/A,,Clear,80,2013-10-22 20:53:00
2:53 PM,72.0,42.1,34,30.11,10.0,Calm,Calm,-,N/A,,Clear,0,2013-10-22 21:53:00
3:53 PM,73.0,39.0,29,30.10,10.0,South,4.6,-,N/A,,Clear,170,2013-10-22 22:53:00
4:53 PM,70.0,42.1,36,30.09,10.0,South,4.6,-,N/A,,Clear,170,2013-10-22 23:53:00
5:53 PM,64.9,42.1,43,30.09,10.0,SE,4.6,-,N/A,,Clear,140,2013-10-23 00:53:00
6:53 PM,53.1,39.9,61,30.09,10.0,Calm,Calm,-,N/A,,Clear,0,2013-10-23 01:53:00
7:53 PM,50.0,39.9,68,30.10,10.0,West,8.1,-,N/A,,Clear,270,2013-10-23 02:53:00
8:53 PM,45.0,39.0,80,30.11,10.0,WNW,5.8,-,N/A,,Clear,290,2013-10-23 03:53:00
9:53 PM,42.1,37.0,82,30.12,10.0,WNW,5.8,-,N/A,,Clear,290,2013-10-23 04:53:00
10:53 PM,42.1,37.0,82,30.12,10.0,WNW,4.6,-,N/A,,Clear,290,2013-10-23 05:53:00
11:53 PM,39.9,36.0,86,30.12,10.0,WNW,4.6,-,N/A,,Clear,300,2013-10-23 06:53:00